TimePDT,TemperatureF,Dew PointF,Humidity,Sea Level PressureIn,VisibilityMPH,Wind Direction,Wind SpeedMPH,Gust SpeedMPH,PrecipitationIn,Events,Conditions,WindDirDegrees,DateUTC
12:53 AM,57.9,55.9,93,30.08,10.0,Calm,Calm,-,N/A,,Scattered Clouds,0,2012-10-06 07:53:00
1:03 AM,57.2,55.4,94,30.08,10.0,Calm,Calm,-,N/A,,Mostly Cloudy,0,2012-10-06 08:03:00
1:49 AM,57.2,53.6,88,30.08,10.0,Calm,Calm,-,N/A,,Partly Cloudy,0,2012-10-06 08:49:00
1:53 AM,57.0,54.0,89,30.08,10.0,SSW,3.5,-,N/A,,Partly Cloudy,200,2012-10-06 08:53:00
2:53 AM,57.0,53.1,87,30.07,10.0,Calm,Calm,-,N/A,,Clear,0,2012-10-06 09:53:00
3:53 AM,55.9,53.1,90,30.06,10.0,Calm,Calm,-,N/A,,Partly Cloudy,0,2012-10-06 10:53:00
4:53 AM,55.0,53.1,93,30.06,10.0,Calm,Calm,-,N/A,,Clear,0,2012-10-06 11:53:00
5:53 AM,54.0,52.0,93,30.06,10.0,Calm,Calm,-,N/A,,Clear,0,2012-10-06 12:53:00
6:53 AM,53.1,53.1,100,30.07,10.0,Calm,Calm,-,N/A,,Clear,0,2012-10-06 13:53:00
7:53 AM,53.1,53.1,100,30.07,10.0,Calm,Calm,-,N/A,,Clear,0,2012-10-06 14:53:00
8:53 AM,57.0,53.1,87,30.07,10.0,Calm,Calm,-,N/A,,Clear,0,2012-10-06 15:53:00
9:53 AM,62.1,55.0,78,30.07,10.0,Calm,Calm,-,N/A,,Clear,0,2012-10-06 16:53:00
10:53 AM,64.9,54.0,68,30.07,10.0,NNW,4.6,-,N/A,,Clear,340,2012-10-06 17:53:00
11:53 AM,66.9,54.0,63,30.06,10.0,WNW,5.8,-,N/A,,Clear,300,2012-10-06 18:53:00
12:53 PM,69.1,48.9,49,30.04,10.0,NW,9.2,-,N/A,,Clear,320,2012-10-06 19:53:00
1:53 PM,70.0,48.9,47,30.03,10.0,WNW,13.8,-,N/A,,Clear,290,2012-10-06 20:53:00
2:53 PM,70.0,48.9,47,30.00,10.0,WNW,9.2,-,N/A,,Clear,290,2012-10-06 21:53:00
4:53 PM,70.0,48.0,46,29.98,10.0,NW,11.5,-,N/A,,Clear,310,2012-10-06 23:53:00
5:53 PM,69.1,48.0,47,29.97,10.0,WNW,10.4,-,N/A,,Clear,300,2012-10-07 00:53:00
6:53 PM,66.0,50.0,56,29.97,10.0,NW,15.0,-,N/A,,Clear,310,2012-10-07 01:53:00
7:53 PM,62.1,51.1,67,29.99,10.0,NNW,11.5,-,N/A,,Clear,330,2012-10-07 02:53:00
8:53 PM,60.8,50.0,68,29.99,10.0,NW,10.4,-,N/A,,Clear,320,2012-10-07 03:53:00
9:53 PM,60.1,51.1,72,30.00,10.0,NW,10.4,-,N/A,,Clear,320,2012-10-07 04:53:00
10:53 PM,59.0,52.0,78,30.01,10.0,NW,5.8,-,N/A,,Clear,310,2012-10-07 05:53:00
11:53 PM,57.9,51.1,78,30.01,10.0,NNW,4.6,-,N/A,,Clear,330,2012-10-07 06:53:00